Location: Home
(42.5358°N, 72.7383°W)
Time: 13:18:14
(UTC-05:00)

Transit 2A Rocket - Pass Details

Date: 03 December 2021
Orbit: 584 x 918 km, 66.7° (Epoch: 22 January)

Event Time Altitude Azimuth Distance (km) Brightness Sun altitude
Rises 17:27:07 0° 320° (NW) 3,547 8.7 -12.4°
Reaches altitude 10° 17:30:00 10° 309° (NW) 2,579 8.2 -12.9°
Maximum altitude 17:35:02 29° 253° (WSW) 1,555 7.5 -13.8°
Drops below altitude 10° 17:39:47 10° 195° (SSW) 2,425 8.0 -14.6°
Sets 17:42:26 0° 184° (S) 3,300 8.6 -15.1°
